QPF
0.00 0.00 0.00 0.00 0.00 0.00 0.00 0.00 0.00 0.00 0.00 0.00 0.00 0.00 0.00 0.00 0.00 0.00 0.00 0.00 0.00 0.00 0.00 0.00 0.00 0.00 0.00 0.00 0.00 0.00 0.00 0.00 0.00 0.00 0.00 0.00 0.00 0.00 0.00 0.00 0.00 0.00 0.00 0.00 0.00 0.00 0.00 0.00 0.00
0.00 0.00 0.00 0.00 0.00 0.00 0.00 0.00 0.00 0.00 0.00 0.00 0.00 0.00 0.00 0.00 0.00 0.00 0.00 0.00 0.00 0.00 0.00 0.00 0.00 0.00 0.00 0.00 0.00 0.00 0.00 0.00 0.00 0.00 0.00 0.00 0.00 0.00 0.00 0.00 0.00 0.00 0.00 0.00 0.00 0.00 0.00 0.00 0.00
0.00 0.00 0.00 0.00 0.00 0.00 0.00 0.00 0.00 0.00 0.00 0.00 0.00 0.00 0.00 0.00 0.00 0.00 0.00 0.00 0.00 0.00 0.00 0.00 0.00 0.00 0.00 0.00 0.00 0.00 0.00 0.00 0.00 0.00 0.00 0.00 0.00 0.00 0.00 0.00 0.00 0.00 0.00 0.00 0.00 0.00 0.00 0.00 0.00
0.00 0.00 0.00 0.00 0.00 0.00 0.00 0.00 0.00 0.00 0.00 0.00 0.00 0.00 0.00 0.00 0.00 0.00 0.00 0.00 0.00 0.00 0.00 0.00 0.00 0.00 0.00 0.00 0.00 0.00 0.00 0.00 0.00 0.00 0.00 0.00 0.00 0.00 0.00 0.00 0.00 0.00 0.00 0.00 0.00 0.00 0.00 0.00 0.00
0.00 0.00 0.00 0.00 0.00 0.00 0.00 0.00 0.00 0.00 0.00 0.00 0.00 0.00 0.00 0.00 0.00 0.00 0.00 0.00 0.00 0.00 0.00 0.00 0.00 0.00 0.00 0.00 0.00 0.00 0.00 0.00 0.00 0.00 0.00 0.00 0.00 0.00 0.00 0.00 0.00 0.00 0.00 0.00 0.00 0.00 0.00 0.00 0.00
0.00 0.00 0.00 0.00 0.00 0.00 0.00 0.00 0.00 0.00 0.00 0.00 0.00 0.00 0.00 0.00 0.00 0.00 0.00 0.00 0.00 0.00 0.00 0.00 0.00 0.00 0.00 0.00 0.00 0.00 0.00 0.00 0.00 0.00 0.00 0.00 0.00 0.00 0.00 0.00 0.00 0.00 0.00 0.00 0.00 0.00 0.00 0.00 0.00
0.00 0.00 0.00 0.00 0.00 0.00 0.00 0.00 0.00 0.00 0.00 0.00 0.00 0.00 0.00 0.00 0.00 0.00 0.00 0.00 0.00 0.00 0.00 0.00 0.00 0.00 0.00 0.00 0.00 0.00 0.00 0.00 0.00 0.00 0.00 0.00 0.00 0.00 0.00 0.00 0.00 0.00 0.00 0.00 0.00 0.00 0.00 0.00 0.00
0.00 0.00 0.00 0.00 0.00 0.00 0.00 0.00 0.00 0.00 0.00 0.00 0.00 0.00 0.00 0.00 0.00 0.00 0.00 0.00 0.00 0.00 0.00 0.00 0.00 0.00 0.00 0.00 0.00 0.00 0.00 0.00 0.00 0.00 0.00 0.00 0.00 0.00 0.00 0.00 0.00 0.00 0.00 0.00 0.00 0.00 0.00 0.00 0.00
0.00 0.00 0.00 0.00 0.00 0.00 0.00 0.00 0.00 0.00 0.00 0.00 0.00 0.00 0.00 0.00 0.00 0.00 0.00 0.00 0.00 0.00 0.00 0.00 0.00 0.00 0.00 0.00 0.00 0.00 0.00 0.00 0.00 0.00 0.00 0.00 0.00 0.00 0.00 0.00 0.00 0.00 0.00 0.00 0.00 0.00 0.00 0.00 0.00
0.00 0.00 0.00 0.00 0.00 0.00 0.00 0.00 0.00 0.00 0.00 0.00 0.00 0.00 0.00 0.00 0.00 0.00 0.00 0.00 0.00 0.00 0.00 0.00 0.00 0.00 0.00 0.00 0.00 0.00 0.00 0.00 0.00 0.00 0.00 0.00 0.00 0.00 0.00 0.00 0.00 0.00 0.00 0.00 0.00 0.00 0.00 0.00 0.00
0.00 0.00 0.00 0.00 0.00 0.00 0.00 0.00 0.00 0.00 0.00 0.00 0.00 0.00 0.00 0.00 0.00 0.00 0.00 0.00 0.00 0.00 0.00 0.00 0.00 0.00 0.00 0.00 0.00 0.00 0.00 0.00 0.00 0.00 0.00 0.00 0.00 0.00 0.00 0.00 0.00 0.00 0.00 0.00 0.00 0.00 0.00 0.00 0.00
0.00 0.00 0.00 0.00 0.00 0.00 0.00 0.00 0.00 0.00 0.00 0.00 0.00 0.00 0.00 0.00 0.00 0.00 0.00 0.00 0.00 0.00 0.00 0.01 0.09 0.10 0.01 0.00 0.00 0.00 0.00 0.00 0.00 0.00 0.00 0.00 0.00 0.00 0.00 0.00 0.00 0.00 0.00 0.00 0.00 0.00 0.00 0.00 0.00
0.00 0.00 0.00 0.00 0.00 0.00 0.00 0.00 0.00 0.00 0.00 0.00 0.00 0.00 0.00 0.00 0.00 0.00 0.00 0.00 0.00 0.00 0.00 0.00 0.06 0.19 0.13 0.04 0.00 0.00 0.00 0.00 0.00 0.00 0.00 0.00 0.00 0.00 0.00 0.00 0.00 0.00 0.00 0.00 0.00 0.00 0.00 0.00 0.00
0.00 0.00 0.00 0.00 0.00 0.00 0.00 0.00 0.00 0.00 0.00 0.00 0.00 0.00 0.00 0.00 0.00 0.00 0.00 0.00 0.00 0.00 0.00 0.00 0.00 0.07 0.13 0.06 0.04 0.02 0.02 0.00 0.00 0.00 0.00 0.00 0.00 0.00 0.00 0.00 0.00 0.00 0.00 0.00 0.00 0.00 0.00 0.00 0.00
0.00 0.00 0.00 0.00 0.00 0.00 0.00 0.00 0.00 0.00 0.00 0.00 0.00 0.00 0.00 0.00 0.00 0.00 0.00 0.00 0.00 0.00 0.00 0.00 0.00 0.00 0.03 0.07 0.06 0.06 0.07 0.06 0.03 0.00 0.00 0.00 0.00 0.00 0.00 0.00 0.00 0.00 0.00 0.00 0.00 0.00 0.00 0.00 0.00
0.00 0.00 0.00 0.00 0.00 0.00 0.00 0.00 0.00 0.00 0.00 0.00 0.00 0.00 0.00 0.00 0.00 0.00 0.00 0.00 0.00 0.00 0.00 0.00 0.00 0.00 0.00 0.01 0.03 0.12 0.11 0.14 0.16 0.03 0.01 0.02 0.00 0.00 0.00 0.00 0.00 0.00 0.00 0.00 0.00 0.00 0.00 0.00 0.00
0.00 0.00 0.00 0.00 0.00 0.00 0.00 0.00 0.00 0.00 0.00 0.00 0.00 0.00 0.00 0.00 0.00 0.00 0.00 0.00 0.00 0.00 0.00 0.00 0.00 0.00 0.00 0.00 0.00 0.05 0.20 0.25 0.18 0.11 0.06 0.03 0.03 0.01 0.00 0.00 0.00 0.00 0.00 0.00 0.00 0.00 0.00 0.00 0.00
0.00 0.00 0.00 0.00 0.00 0.00 0.00 0.00 0.00 0.00 0.00 0.00 0.00 0.00 0.00 0.00 0.00 0.00 0.00 0.00 0.00 0.00 0.00 0.00 0.00 0.00 0.00 0.00 0.00 0.00 0.11 0.36 0.35 0.23 0.16 0.11 0.07 0.07 0.05 0.01 0.00 0.01 0.00 0.00 0.01 0.01 0.00 0.00 0.00
0.00 0.00 0.00 0.00 0.00 0.00 0.00 0.00 0.00 0.00 0.00 0.00 0.00 0.00 0.00 0.00 0.00 0.00 0.00 0.00 0.00 0.00 0.00 0.00 0.00 0.00 0.00 0.00 0.00 0.00 0.00 0.01 0.16 0.34 0.13 0.06 0.12 0.17 0.09 0.02 0.02 0.04 0.01 0.00 0.15 0.10 0.03 0.01 0.00
0.00 0.00 0.00 0.00 0.00 0.00 0.00 0.00 0.00 0.00 0.00 0.00 0.00 0.00 0.00 0.00 0.00 0.00 0.00 0.00 0.00 0.00 0.00 0.00 0.00 0.00 0.00 0.00 0.00 0.00 0.00 0.00 0.00 0.00 0.03 0.07 0.11 0.31 0.21 0.14 0.09 0.06 0.02 0.04 0.25 0.20 0.13 0.04 0.04
0.00 0.00 0.00 0.00 0.00 0.00 0.00 0.00 0.00 0.00 0.00 0.00 0.00 0.00 0.00 0.00 0.00 0.00 0.00 0.00 0.00 0.00 0.00 0.00 0.00 0.00 0.00 0.00 0.00 0.00 0.00 0.00 0.00 0.00 0.00 0.02 0.05 0.08 0.26 0.09 0.20 0.30 0.24 0.16 0.25 0.31 0.19 0.11 0.08
0.00 0.00 0.00 0.00 0.00 0.00 0.00 0.00 0.00 0.00 0.00 0.00 0.00 0.00 0.00 0.00 0.00 0.00 0.00 0.00 0.00 0.00 0.00 0.00 0.00 0.00 0.00 0.00 0.00 0.00 0.00 0.00 0.00 0.00 0.00 0.00 0.02 0.05 0.17 0.27 0.14 0.13 0.21 0.24 0.18 0.18 0.17 0.18 0.17
0.00 0.00 0.00 0.00 0.00 0.00 0.00 0.00 0.00 0.00 0.00 0.00 0.00 0.00 0.00 0.00 0.00 0.00 0.00 0.00 0.00 0.00 0.00 0.00 0.00 0.00 0.00 0.00 0.00 0.00 0.00 0.00 0.00 0.00 0.00 0.00 0.00 0.00 0.03 0.20 0.14 0.10 0.18 0.21 0.22 0.25 0.24 0.18 0.15
0.00 0.00 0.00 0.00 0.00 0.00 0.00 0.00 0.00 0.00 0.00 0.00 0.00 0.00 0.00 0.00 0.00 0.00 0.00 0.00 0.00 0.00 0.00 0.00 0.00 0.00 0.00 0.00 0.00 0.00 0.00 0.00 0.00 0.00 0.00 0.00 0.00 0.02 0.04 0.14 0.15 0.16 0.20 0.19 0.34 0.31 0.32 0.41 0.51
0.00 0.00 0.00 0.00 0.00 0.00 0.00 0.00 0.00 0.00 0.00 0.00 0.00 0.00 0.00 0.00 0.00 0.00 0.00 0.00 0.00 0.00 0.00 0.00 0.00 0.00 0.00 0.00 0.00 0.00 0.00 0.00 0.00 0.00 0.00 0.00 0.00 0.02 0.03 0.08 0.15 0.16 0.14 0.23 0.18 0.31 0.29 0.33 0.37
0.00 0.00 0.00 0.00 0.00 0.00 0.00 0.00 0.00 0.00 0.00 0.00 0.00 0.00 0.00 0.00 0.00 0.00 0.00 0.00 0.00 0.00 0.00 0.00 0.00 0.00 0.00 0.00 0.00 0.00 0.00 0.00 0.00 0.00 0.00 0.01 0.01 0.01 0.02 0.03 0.10 0.13 0.13 0.18 0.19 0.19 0.20 0.19 0.20
0.00 0.00 0.00 0.00 0.00 0.00 0.00 0.00 0.00 0.00 0.00 0.00 0.00 0.00 0.00 0.00 0.00 0.00 0.00 0.00 0.00 0.00 0.00 0.00 0.00 0.00 0.00 0.00 0.00 0.00 0.00 0.00 0.00 0.00 0.01 0.02 0.02 0.01 0.02 0.04 0.06 0.07 0.10 0.13 0.17 0.16 0.12 0.11 0.14
0.00 0.00 0.00 0.00 0.00 0.00 0.00 0.00 0.00 0.00 0.00 0.00 0.00 0.00 0.00 0.00 0.00 0.00 0.00 0.00 0.00 0.00 0.00 0.00 0.00 0.00 0.00 0.00 0.00 0.00 0.00 0.00 0.01 0.02 0.01 0.02 0.02 0.02 0.04 0.03 0.03 0.04 0.05 0.07 0.07 0.08 0.10 0.08 0.05
0.00 0.00 0.00 0.00 0.00 0.00 0.00 0.00 0.00 0.00 0.00 0.00 0.00 0.00 0.00 0.00 0.00 0.00 0.00 0.00 0.00 0.00 0.00 0.00 0.00 0.00 0.00 0.00 0.00 0.00 0.00 0.01 0.02 0.03 0.05 0.06 0.04 0.03 0.05 0.06 0.06 0.07 0.08 0.08 0.06 0.08 0.14 0.14 0.07
0.00 0.00 0.00 0.00 0.00 0.00 0.00 0.00 0.00 0.00 0.00 0.00 0.00 0.00 0.00 0.00 0.00 0.00 0.00 0.00 0.00 0.00 0.00 0.00 0.00 0.00 0.00 0.00 0.00 0.00 0.01 0.03 0.06 0.07 0.06 0.06 0.08 0.07 0.08 0.12 0.14 0.18 0.16 0.13 0.12 0.06 0.05 0.06 0.04
MSLP
1012.26 1012.05 1012.67 1012.63 1013.42 1012.73 1011.53 1009.49 1008.16 1006.73 1005.98 1005.58 1005.17 1005.61 1007.34 1007.63 1007.83 1009.31 1008.66 1008.67 1008.97 1009.61 1010.15 1010.29 1010.23 1010.42 1010.75 1011.07 1011.19 1011.38 1011.75 1012.07 1012.50 1013.05 1013.39 1013.56 1013.68 1013.90 1014.06 1014.23 1014.38 1014.49 1014.64 1014.73 1014.95 1015.29 1015.49 1015.78 1015.92
1012.24 1012.01 1012.44 1012.48 1012.98 1012.61 1010.56 1008.22 1007.57 1006.69 1005.95 1005.48 1005.40 1005.90 1006.94 1008.08 1007.62 1008.48 1008.65 1009.03 1009.26 1009.74 1010.37 1010.65 1010.62 1010.88 1011.08 1011.31 1011.44 1011.57 1011.86 1012.29 1012.55 1012.91 1013.33 1013.70 1013.85 1014.03 1014.26 1014.41 1014.58 1014.67 1014.82 1014.93 1015.11 1015.42 1015.69 1015.92 1016.02
1012.48 1012.36 1012.84 1012.59 1012.17 1011.71 1010.09 1008.33 1006.92 1006.15 1005.62 1005.76 1005.94 1006.14 1007.15 1008.24 1008.40 1008.72 1008.63 1008.63 1009.38 1009.86 1010.10 1010.72 1010.89 1011.15 1011.38 1011.51 1011.68 1011.79 1012.04 1012.43 1012.73 1012.98 1013.30 1013.56 1013.88 1014.17 1014.41 1014.51 1014.74 1014.86 1014.97 1015.10 1015.22 1015.48 1015.81 1015.98 1016.08
1012.44 1012.45 1012.37 1012.19 1011.44 1009.93 1008.67 1007.79 1006.58 1006.26 1006.01 1005.89 1006.23 1007.41 1007.97 1008.01 1008.55 1008.93 1008.54 1008.50 1009.42 1009.96 1009.96 1010.62 1010.85 1011.29 1011.59 1011.58 1011.91 1012.09 1012.33 1012.62 1012.90 1013.03 1013.33 1013.58 1013.84 1014.04 1014.33 1014.51 1014.72 1014.92 1015.02 1015.22 1015.42 1015.58 1015.87 1016.08 1016.20
1012.76 1012.63 1012.82 1012.20 1010.83 1009.26 1008.11 1007.13 1006.53 1006.54 1006.58 1006.71 1006.70 1008.10 1008.94 1009.01 1008.94 1009.04 1008.72 1009.04 1009.77 1010.40 1010.04 1010.42 1010.68 1011.24 1011.64 1011.74 1011.97 1012.21 1012.36 1012.67 1012.88 1013.11 1013.34 1013.64 1013.95 1014.24 1014.47 1014.60 1014.75 1014.90 1015.05 1015.22 1015.47 1015.70 1015.91 1016.13 1016.26
1012.82 1012.55 1013.02 1012.38 1010.92 1009.53 1007.98 1007.13 1006.80 1006.64 1006.84 1007.12 1007.77 1008.26 1009.58 1009.32 1009.05 1009.11 1008.78 1009.25 1009.73 1010.55 1010.93 1010.95 1011.13 1011.42 1011.68 1011.92 1012.12 1012.25 1012.36 1012.62 1012.88 1013.08 1013.23 1013.55 1013.87 1014.23 1014.52 1014.80 1014.99 1015.18 1015.26 1015.48 1015.73 1015.87 1016.04 1016.18 1016.31
1012.73 1013.24 1013.01 1012.31 1011.01 1009.86 1008.47 1007.51 1007.65 1007.74 1007.66 1007.86 1008.14 1008.70 1009.76 1009.33 1009.11 1008.96 1009.09 1009.09 1009.52 1010.04 1010.58 1011.04 1011.29 1011.51 1011.75 1011.93 1012.11 1012.27 1012.38 1012.59 1012.96 1013.27 1013.37 1013.50 1013.83 1014.20 1014.48 1014.71 1014.91 1015.14 1015.36 1015.64 1015.92 1016.06 1016.23 1016.33 1016.39
1012.10 1012.90 1012.90 1012.02 1011.03 1010.54 1009.00 1008.41 1008.33 1008.24 1008.41 1008.29 1008.34 1009.15 1009.70 1009.87 1009.25 1009.12 1009.62 1009.73 1009.67 1010.19 1010.46 1010.72 1010.93 1011.29 1011.69 1011.90 1012.09 1012.22 1012.35 1012.48 1012.83 1013.18 1013.43 1013.61 1013.71 1013.92 1014.24 1014.58 1014.85 1015.07 1015.22 1015.41 1015.63 1015.85 1016.16 1016.37 1016.53
1011.69 1012.65 1012.96 1012.02 1011.11 1010.54 1009.86 1009.39 1009.16 1008.87 1008.85 1008.71 1008.78 1009.18 1009.83 1009.61 1009.54 1009.75 1009.98 1010.53 1010.29 1010.07 1010.40 1010.61 1010.64 1010.78 1011.40 1011.84 1012.13 1012.25 1012.20 1012.14 1012.46 1012.94 1013.24 1013.47 1013.63 1013.74 1013.82 1014.06 1014.44 1014.75 1015.08 1015.35 1015.60 1015.80 1015.98 1016.15 1016.34
1011.85 1012.38 1012.08 1011.31 1011.07 1010.81 1010.39 1010.15 1010.11 1009.91 1009.62 1009.58 1009.82 1010.04 1009.97 1009.87 1010.16 1010.61 1010.90 1010.92 1010.96 1010.68 1010.31 1010.25 1010.51 1010.65 1010.78 1011.27 1011.82 1012.28 1012.49 1012.42 1012.17 1012.41 1012.92 1013.19 1013.28 1013.38 1013.34 1013.54 1013.92 1014.36 1014.67 1014.99 1015.28 1015.59 1015.84 1016.10 1016.26
1011.44 1011.54 1011.23 1010.61 1010.61 1010.46 1010.65 1010.78 1010.56 1010.68 1010.61 1010.84 1010.90 1010.88 1010.68 1010.74 1011.00 1011.32 1011.64 1011.91 1012.53 1012.22 1011.92 1011.18 1010.28 1010.52 1010.88 1011.09 1011.62 1011.96 1012.17 1012.42 1012.41 1012.04 1012.41 1012.72 1012.85 1012.91 1013.04 1013.22 1013.37 1013.87 1014.34 1014.71 1015.01 1015.29 1015.57 1015.77 1015.98
1011.33 1010.83 1010.78 1010.54 1010.24 1010.43 1010.56 1010.65 1010.91 1010.97 1011.15 1010.79 1010.77 1011.00 1011.20 1011.61 1012.20 1012.65 1012.56 1012.78 1012.81 1012.94 1013.07 1012.48 1011.69 1011.12 1010.46 1010.46 1011.08 1011.53 1011.86 1012.11 1012.29 1012.26 1012.10 1012.63 1012.95 1013.01 1013.03 1013.10 1013.16 1013.31 1013.63 1014.24 1014.64 1014.97 1015.15 1015.38 1015.53
1011.07 1010.76 1010.57 1010.42 1010.54 1010.39 1010.48 1010.60 1010.84 1010.85 1010.95 1010.79 1010.87 1011.22 1011.75 1012.28 1013.02 1013.27 1014.31 1014.62 1014.65 1014.52 1014.75 1014.42 1013.76 1013.34 1012.86 1011.12 1010.48 1010.89 1011.24 1011.58 1011.94 1012.05 1011.93 1011.88 1012.32 1012.69 1012.59 1012.87 1013.00 1012.97 1012.99 1013.18 1013.82 1014.36 1014.70 1014.81 1014.91
1011.37 1011.12 1010.89 1010.75 1010.74 1010.73 1010.92 1010.79 1010.98 1011.32 1010.72 1010.89 1011.19 1011.88 1012.59 1013.42 1014.23 1014.74 1015.25 1015.74 1015.82 1015.85 1015.69 1015.53 1015.12 1014.90 1014.29 1013.32 1012.27 1011.09 1010.91 1010.91 1011.34 1011.49 1011.64 1011.66 1011.63 1011.82 1012.23 1012.53 1012.52 1012.37 1012.49 1012.43 1012.69 1013.28 1013.97 1014.26 1014.35
1011.90 1011.81 1011.35 1010.95 1010.57 1011.16 1011.04 1011.22 1010.89 1011.30 1011.06 1011.40 1011.80 1012.53 1013.41 1014.45 1015.29 1016.38 1016.80 1016.77 1016.97 1016.74 1016.59 1016.13 1015.90 1015.73 1015.52 1014.76 1013.76 1012.32 1011.58 1011.01 1011.07 1011.13 1011.17 1011.28 1011.31 1011.20 1011.44 1011.70 1011.97 1011.86 1011.87 1012.12 1012.24 1012.41 1012.91 1013.45 1013.69
1012.66 1012.47 1011.97 1010.45 1010.20 1011.20 1011.20 1011.98 1011.61 1011.41 1011.36 1012.04 1012.46 1013.60 1014.46 1015.85 1016.65 1017.22 1017.40 1017.49 1017.54 1017.37 1017.16 1017.04 1016.91 1016.56 1015.92 1015.60 1014.43 1013.38 1012.37 1011.32 1011.34 1010.77 1010.72 1010.76 1010.87 1010.97 1010.89 1011.01 1011.07 1011.21 1011.31 1011.47 1011.66 1011.83 1012.21 1012.69 1013.10
1012.79 1012.66 1011.68 1011.18 1010.40 1011.22 1011.62 1012.23 1011.95 1011.80 1011.94 1012.47 1013.77 1014.86 1015.86 1016.69 1017.11 1017.83 1018.10 1018.37 1018.58 1018.72 1018.33 1017.84 1017.50 1017.34 1017.15 1016.19 1015.47 1014.57 1013.46 1012.25 1010.99 1010.85 1010.46 1010.25 1010.50 1010.37 1010.43 1010.38 1010.43 1010.34 1011.06 1010.96 1011.03 1011.10 1011.33 1012.01 1012.33
1012.98 1012.87 1012.09 1011.51 1011.44 1011.52 1012.22 1012.46 1012.42 1012.62 1013.06 1014.04 1014.96 1016.31 1017.10 1017.76 1018.71 1018.81 1018.84 1019.05 1019.53 1019.93 1019.94 1019.45 1018.90 1018.27 1017.73 1016.98 1016.52 1015.59 1014.38 1013.45 1012.20 1010.96 1010.64 1009.79 1009.86 1009.92 1009.98 1010.00 1010.22 1010.00 1010.47 1010.44 1010.29 1010.17 1010.62 1010.79 1011.27
1012.60 1012.75 1012.74 1011.97 1011.63 1012.03 1012.49 1012.88 1013.10 1013.27 1014.17 1015.09 1016.35 1017.08 1018.02 1018.54 1019.15 1019.55 1019.47 1019.70 1020.30 1020.60 1020.71 1020.71 1020.11 1019.53 1018.86 1018.04 1017.43 1016.62 1015.72 1014.40 1013.30 1011.77 1010.75 1009.72 1009.80 1009.18 1009.58 1009.24 1009.13 1009.17 1009.28 1009.37 1009.45 1009.46 1009.74 1010.44 1010.64
1012.79 1012.86 1012.76 1012.54 1012.18 1012.48 1013.02 1013.57 1013.53 1014.21 1015.10 1016.01 1016.95 1017.79 1018.41 1019.13 1019.12 1019.40 1019.99 1020.75 1021.05 1021.32 1021.53 1021.45 1021.08 1020.64 1020.06 1019.63 1018.93 1018.20 1016.97 1015.37 1013.94 1013.10 1012.60 1011.61 1010.07 1008.55 1008.07 1008.38 1008.40 1008.29 1008.21 1008.46 1008.67 1008.84 1009.39 1009.80 1010.38
1012.81 1013.00 1013.27 1013.51 1013.39 1013.24 1013.55 1013.73 1013.71 1014.46 1016.01 1017.06 1018.09 1018.63 1019.05 1019.45 1020.05 1020.07 1020.79 1021.14 1021.57 1021.97 1022.04 1021.88 1021.62 1021.17 1020.81 1020.30 1019.23 1018.04 1017.04 1015.97 1014.76 1013.39 1012.28 1011.41 1010.75 1009.79 1008.46 1006.70 1007.25 1007.46 1006.99 1007.03 1007.34 1008.31 1008.67 1008.96 1009.16
1013.38 1013.58 1013.92 1014.34 1014.84 1015.28 1015.01 1015.06 1014.39 1014.94 1016.69 1017.55 1018.90 1019.47 1019.94 1020.16 1020.61 1020.68 1020.90 1021.53 1022.11 1022.48 1022.59 1022.41 1022.12 1021.63 1021.17 1020.73 1019.84 1019.12 1017.75 1016.67 1015.83 1015.08 1013.44 1012.06 1010.44 1009.32 1008.42 1007.09 1005.68 1005.75 1005.80 1006.03 1006.15 1006.60 1007.53 1007.84 1008.45
1013.83 1014.24 1014.90 1015.46 1016.02 1016.12 1016.07 1016.36 1014.88 1015.40 1017.43 1018.38 1019.25 1020.08 1020.51 1020.62 1020.81 1021.23 1021.88 1022.34 1022.78 1022.84 1022.79 1022.85 1022.42 1022.07 1021.68 1021.08 1020.50 1019.57 1018.29 1017.56 1016.29 1015.07 1013.74 1012.21 1010.54 1009.24 1008.18 1007.08 1005.39 1004.74 1004.94 1004.83 1005.27 1005.53 1006.47 1006.90 1007.46
1014.22 1014.65 1015.39 1015.97 1016.78 1016.86 1015.67 1016.72 1016.28 1016.29 1017.03 1018.69 1019.59 1020.35 1020.96 1021.11 1021.30 1021.56 1021.98 1022.30 1022.67 1022.54 1022.91 1022.75 1022.57 1022.31 1021.80 1021.09 1020.62 1020.03 1019.17 1017.98 1016.38 1014.73 1013.29 1012.17 1010.64 1008.93 1007.31 1006.30 1005.26 1003.92 1003.36 1003.96 1004.35 1004.76 1005.22 1005.98 1006.34
1015.05 1015.96 1016.93 1017.31 1017.62 1016.90 1015.66 1016.43 1018.34 1017.92 1018.48 1019.03 1019.97 1021.04 1021.50 1021.66 1021.82 1021.99 1022.12 1022.17 1022.28 1022.78 1022.94 1022.94 1022.93 1022.69 1022.32 1021.69 1020.88 1020.18 1019.35 1018.35 1017.30 1015.64 1014.07 1012.63 1010.78 1009.13 1007.39 1006.21 1004.67 1003.29 1002.87 1003.18 1003.78 1004.13 1004.47 1005.00 1005.67
1015.23 1016.15 1017.29 1017.90 1018.19 1017.89 1016.69 1017.26 1018.90 1019.03 1019.35 1019.95 1020.64 1021.26 1021.62 1021.84 1021.84 1021.81 1021.91 1022.23 1022.58 1022.71 1022.77 1022.95 1022.86 1022.69 1022.34 1021.66 1020.93 1020.06 1019.53 1018.43 1017.30 1016.04 1014.87 1013.27 1011.82 1010.25 1008.25 1006.53 1004.59 1003.38 1002.28 1002.46 1002.89 1003.69 1004.00 1004.70 1005.21
1015.33 1016.36 1016.95 1018.12 1018.57 1018.71 1018.20 1019.06 1019.57 1019.59 1019.85 1020.26 1020.93 1021.28 1021.48 1021.53 1021.38 1021.51 1021.87 1022.33 1022.75 1022.92 1022.99 1023.02 1022.94 1022.83 1022.47 1021.74 1020.89 1019.79 1019.39 1018.30 1017.20 1016.03 1014.98 1013.55 1012.04 1010.72 1008.62 1006.77 1004.29 1002.95 1002.16 1002.01 1002.68 1003.44 1003.89 1004.38 1004.65
1015.55 1016.68 1017.62 1018.90 1019.99 1019.77 1018.62 1018.64 1018.82 1019.52 1019.94 1020.32 1020.85 1021.16 1021.22 1021.31 1021.59 1021.92 1022.30 1022.82 1023.03 1023.05 1022.97 1022.91 1022.92 1022.74 1022.17 1021.68 1020.85 1019.65 1019.11 1018.14 1017.25 1016.30 1015.00 1013.64 1012.11 1010.76 1008.42 1006.87 1004.84 1003.05 1002.40 1002.17 1002.66 1003.15 1003.51 1004.05 1004.63
1016.29 1016.85 1017.83 1019.01 1020.08 1020.41 1020.07 1019.93 1018.75 1019.26 1019.85 1020.56 1020.93 1021.39 1021.70 1021.96 1022.13 1022.44 1022.77 1023.07 1023.12 1022.96 1022.78 1022.85 1022.90 1022.53 1021.96 1021.53 1020.54 1019.87 1018.90 1018.10 1017.30 1016.39 1015.22 1013.76 1012.27 1010.81 1008.94 1007.41 1005.69 1003.68 1002.54 1002.25 1002.52 1003.02 1003.67 1004.05 1004.68
1015.53 1016.35 1017.62 1019.56 1020.35 1020.60 1020.49 1020.28 1019.79 1019.52 1019.91 1020.52 1021.09 1021.37 1021.55 1021.78 1022.14 1022.42 1022.64 1022.85 1023.00 1023.06 1023.02 1022.98 1022.84 1022.33 1021.76 1021.34 1020.61 1019.99 1018.99 1018.18 1017.42 1016.30 1015.25 1014.10 1012.72 1011.00 1009.81 1007.63 1007.18 1004.40 1004.74 1003.28 1003.29 1003.67 1004.18 1004.20 1004.87
Thickness
5768 5770 5767 5760 5727 5727 5723 5747 5777 5771 5780 5802 5810 5796 5773 5779 5769 5735 5796 5802 5799 5792 5787 5786 5787 5784 5780 5774 5771 5769 5766 5763 5760 5755 5752 5751 5750 5748 5747 5745 5743 5741 5738 5736 5732 5727 5723 5718 5714
5765 5767 5761 5748 5718 5706 5720 5764 5757 5773 5791 5804 5805 5797 5778 5765 5790 5784 5787 5795 5793 5789 5783 5781 5781 5778 5776 5772 5769 5766 5763 5759 5756 5754 5751 5748 5746 5745 5742 5741 5739 5738 5735 5733 5729 5724 5719 5714 5711
5759 5761 5740 5727 5717 5707 5726 5759 5768 5785 5797 5791 5787 5794 5778 5768 5782 5783 5795 5793 5790 5785 5783 5778 5776 5773 5771 5769 5766 5763 5760 5756 5753 5751 5749 5747 5744 5741 5739 5738 5735 5734 5732 5729 5726 5722 5716 5712 5709
5750 5746 5741 5720 5723 5739 5752 5761 5777 5779 5785 5792 5787 5761 5779 5786 5782 5785 5793 5792 5787 5783 5781 5776 5773 5769 5766 5766 5761 5758 5755 5752 5749 5748 5745 5743 5741 5739 5736 5735 5732 5730 5728 5725 5722 5719 5714 5709 5706
5741 5733 5712 5715 5724 5748 5761 5772 5782 5768 5769 5770 5779 5755 5752 5773 5783 5784 5787 5785 5779 5776 5778 5775 5771 5766 5762 5761 5758 5754 5752 5748 5746 5744 5741 5738 5736 5733 5731 5730 5728 5726 5724 5721 5718 5714 5710 5706 5702
5721 5727 5699 5696 5719 5744 5757 5770 5775 5770 5767 5766 5762 5759 5743 5766 5777 5779 5784 5779 5777 5770 5766 5765 5763 5759 5757 5755 5752 5751 5749 5746 5743 5740 5738 5735 5732 5729 5726 5724 5722 5719 5718 5715 5712 5709 5705 5702 5699
5718 5705 5700 5708 5719 5725 5743 5760 5751 5749 5749 5750 5764 5746 5744 5752 5772 5780 5779 5778 5772 5769 5766 5761 5757 5755 5752 5749 5747 5746 5745 5742 5738 5734 5732 5731 5727 5724 5721 5719 5717 5714 5712 5709 5705 5703 5699 5696 5694
5724 5711 5706 5711 5715 5712 5736 5745 5748 5745 5738 5761 5762 5733 5731 5743 5763 5774 5769 5769 5766 5762 5763 5760 5755 5752 5748 5745 5742 5741 5740 5739 5735 5731 5728 5726 5724 5722 5719 5715 5712 5709 5707 5705 5702 5699 5695 5691 5688
5736 5694 5683 5700 5712 5710 5726 5723 5738 5751 5746 5748 5750 5745 5744 5752 5757 5758 5755 5749 5754 5755 5755 5754 5753 5749 5744 5740 5736 5735 5735 5736 5733 5728 5725 5722 5720 5718 5717 5715 5711 5707 5704 5701 5697 5694 5692 5689 5686
5710 5686 5695 5716 5717 5711 5718 5721 5723 5726 5727 5729 5725 5735 5742 5748 5746 5738 5734 5734 5737 5743 5749 5749 5748 5745 5741 5737 5732 5728 5725 5726 5728 5727 5722 5719 5717 5715 5715 5713 5710 5706 5703 5699 5696 5692 5689 5686 5683
5712 5698 5713 5720 5720 5721 5716 5714 5719 5708 5705 5707 5709 5717 5727 5728 5728 5726 5723 5724 5716 5721 5730 5740 5746 5739 5735 5731 5727 5724 5722 5720 5720 5723 5719 5717 5716 5714 5712 5710 5708 5704 5699 5697 5694 5690 5687 5684 5680
5700 5716 5716 5717 5720 5717 5710 5714 5706 5706 5701 5715 5717 5717 5715 5714 5707 5707 5710 5710 5710 5711 5712 5719 5731 5731 5730 5729 5724 5720 5717 5715 5712 5712 5714 5708 5706 5707 5706 5706 5704 5703 5700 5695 5691 5688 5686 5683 5679
5703 5711 5716 5715 5712 5715 5714 5707 5702 5701 5707 5714 5714 5710 5706 5703 5695 5697 5690 5690 5691 5692 5691 5695 5703 5706 5706 5718 5725 5721 5718 5710 5705 5705 5706 5707 5703 5702 5704 5701 5699 5699 5700 5698 5693 5688 5684 5683 5681
5700 5701 5703 5704 5701 5703 5701 5699 5699 5695 5709 5707 5704 5699 5689 5683 5679 5680 5678 5675 5675 5676 5678 5681 5683 5683 5688 5694 5701 5711 5709 5707 5702 5700 5698 5699 5701 5701 5700 5699 5699 5698 5697 5697 5695 5690 5685 5681 5679
5691 5679 5686 5692 5696 5689 5697 5682 5681 5691 5697 5694 5693 5684 5675 5671 5667 5661 5661 5662 5660 5662 5662 5665 5665 5665 5665 5672 5679 5690 5693 5696 5693 5693 5694 5693 5694 5697 5698 5697 5697 5698 5694 5693 5692 5691 5686 5682 5679
5668 5669 5657 5689 5692 5684 5683 5657 5682 5688 5686 5679 5683 5668 5663 5655 5653 5649 5649 5652 5652 5649 5646 5645 5647 5648 5653 5655 5664 5670 5676 5683 5681 5684 5686 5687 5687 5688 5691 5694 5694 5695 5693 5691 5690 5688 5685 5682 5678
5654 5640 5655 5669 5686 5672 5669 5659 5675 5676 5678 5672 5656 5651 5648 5645 5644 5640 5637 5634 5631 5625 5626 5628 5630 5630 5631 5640 5645 5653 5659 5665 5673 5673 5678 5678 5680 5682 5683 5690 5690 5690 5686 5687 5688 5687 5685 5679 5677
5641 5644 5657 5655 5664 5663 5651 5655 5666 5665 5654 5644 5638 5630 5630 5626 5620 5623 5620 5615 5608 5603 5602 5605 5608 5611 5613 5620 5623 5631 5642 5645 5653 5662 5667 5676 5674 5672 5675 5678 5681 5682 5679 5679 5683 5685 5681 5679 5676
5653 5646 5635 5648 5660 5649 5640 5643 5646 5652 5639 5632 5621 5617 5610 5609 5609 5604 5604 5600 5591 5585 5582 5582 5585 5589 5594 5599 5602 5607 5614 5625 5632 5644 5655 5664 5660 5669 5668 5673 5678 5677 5678 5677 5677 5678 5679 5673 5672
5639 5636 5634 5645 5655 5644 5632 5625 5629 5631 5624 5621 5615 5608 5601 5596 5599 5597 5588 5578 5572 5568 5564 5561 5564 5566 5570 5572 5577 5583 5591 5601 5610 5618 5625 5638 5649 5660 5667 5669 5667 5669 5675 5675 5674 5672 5669 5666 5662
5634 5630 5629 5628 5633 5635 5626 5618 5626 5619 5606 5605 5600 5595 5590 5586 5579 5579 5571 5564 5558 5552 5550 5548 5547 5549 5549 5552 5559 5569 5577 5584 5592 5598 5611 5619 5626 5638 5651 5670 5666 5665 5673 5677 5672 5664 5663 5661 5660
5618 5628 5624 5618 5605 5591 5605 5577 5621 5603 5594 5591 5582 5575 5570 5568 5563 5561 5556 5549 5539 5532 5529 5529 5528 5530 5531 5531 5538 5543 5555 5564 5568 5573 5585 5598 5613 5627 5637 5649 5666 5668 5670 5671 5668 5664 5660 5658 5646
5613 5615 5607 5601 5588 5584 5591 5572 5596 5589 5573 5574 5571 5563 5554 5550 5546 5541 5532 5524 5516 5514 5511 5506 5508 5508 5508 5509 5512 5519 5529 5535 5546 5555 5567 5580 5595 5610 5623 5633 5650 5658 5663 5666 5665 5662 5654 5654 5650
5609 5605 5598 5589 5576 5561 5590 5570 5580 5569 5567 5564 5560 5552 5543 5534 5527 5522 5514 5505 5500 5497 5490 5487 5486 5484 5486 5490 5489 5492 5498 5508 5522 5538 5552 5561 5576 5594 5612 5623 5633 5648 5659 5655 5658 5657 5653 5650 5649
5592 5578 5552 5555 5548 5554 5597 5574 5542 5549 5545 5546 5542 5523 5516 5514 5509 5504 5497 5491 5487 5475 5472 5468 5463 5461 5461 5464 5466 5468 5475 5482 5490 5505 5522 5535 5552 5569 5590 5605 5621 5637 5645 5647 5644 5643 5642 5643 5640
5575 5567 5534 5550 5546 5548 5580 5561 5531 5536 5534 5529 5524 5512 5510 5503 5495 5491 5487 5479 5471 5462 5457 5451 5445 5441 5439 5442 5444 5446 5447 5456 5466 5479 5491 5507 5521 5537 5559 5580 5602 5618 5631 5637 5634 5631 5631 5630 5628
5571 5556 5565 5547 5546 5536 5551 5532 5526 5526 5522 5519 5512 5506 5500 5494 5489 5484 5476 5465 5452 5443 5438 5431 5425 5418 5415 5417 5418 5422 5421 5428 5439 5451 5463 5482 5496 5513 5536 5558 5585 5601 5614 5623 5619 5617 5618 5617 5618
5564 5559 5531 5522 5517 5521 5538 5530 5514 5518 5513 5513 5501 5493 5487 5483 5476 5467 5457 5445 5436 5426 5420 5414 5405 5399 5396 5392 5393 5398 5399 5404 5410 5418 5433 5450 5472 5491 5517 5537 5561 5582 5595 5603 5606 5607 5608 5607 5606
5540 5536 5539 5529 5510 5504 5509 5502 5517 5508 5505 5495 5487 5480 5470 5464 5454 5445 5437 5427 5419 5412 5406 5398 5391 5388 5385 5382 5385 5384 5389 5392 5397 5404 5413 5427 5444 5466 5492 5514 5535 5559 5577 5587 5593 5594 5593 5594 5591
5546 5539 5524 5478 5501 5477 5467 5486 5499 5495 5490 5482 5476 5472 5466 5455 5443 5434 5426 5415 5406 5399 5392 5387 5382 5380 5378 5375 5374 5374 5378 5382 5385 5391 5399 5408 5423 5443 5465 5494 5505 5538 5543 5563 5571 5578 5579 5583 5582